Dennison, Illinois
Current Conditions -  °F | °C
As of 2:53 AM on Thursday 23 Oct 2014 (Local Time) from KHUF Reporting Station
Clear Clear  
Wind Chill: 36°   Ceiling: Unl
Heat Index: 36°   Visibility: 10mi
Dew Point: 35°   Wind: 0mph
Humidity: 97%   Direction: NA
Pressure: 30.25"   Gusts: NA
Location:  39.46°N, 87.6°W
Report Text: KHUF 230753Z 00000KT 10SM CLR 02/02 A3025 RMK AO2 SLP246 T00220017
Loading
Personal Weather Stations






























Interactive Weather Map
Tropical Storm Tracking
New forecast layout! Learn more

10-Day Weather Forecast

Advertisements
Track Severe Weather on mobile